FW5145 Weather Reports


Display with metric or nautical units.
time (UTC)temp
F
wind
direction
speed
MPH
gust
MPH
rain 1hr
in
rain 24hr
in
rain mn
in
humidity
%
barometer
mb
20260906133044 75 211 2.0 7.0 0.00 0.00 0.00 100 1021.4
20260906132533 75 182 2.0 7.0 0.00 0.00 0.00 100 1021.5
20260906132032 75 215 2.0 11.0 0.00 0.00 0.00 100 1021.5
20260906131546 75 225 2.0 12.0 0.00 0.00 0.00 100 1021.5
20260906131031 75 174 3.0 12.0 0.00 0.00 0.00 100 1021.5
20260906130532 75 196 0.0 8.0 0.00 0.00 0.00 100 1021.6
20260906130053 75 190 2.0 8.0 0.00 0.00 0.00 100 1021.5
20260906125538 75 189 2.0 7.0 0.00 0.00 0.00 100 1021.5
20260906125033 75 256 2.0 7.0 0.00 0.00 0.00 100 1021.5
20260906124548 75 201 1.0 7.0 0.00 0.00 0.00 100 1021.5
20260906124033 75 219 1.0 11.0 0.00 0.00 0.00 100 1021.6
20260906123531 75 240 2.0 11.0 0.00 0.00 0.00 100 1021.6
20260906123113 75 180 2.0 9.0 0.00 0.00 0.00 100 1021.7
20260906122532 75 215 2.0 9.0 0.00 0.00 0.00 100 1021.8
20260906122033 76 222 2.0 9.0 0.00 0.00 0.00 100 1022.0
20260906121553 76 238 2.0 9.0 0.00 0.00 0.00 100 1022.0
20260906121034 75 179 3.0 9.0 0.00 0.00 0.00 100 1022.1
20260906120533 75 180 3.0 9.0 0.00 0.00 0.00 100 1021.9
20260906120046 75 245 2.0 8.0 0.00 0.00 0.00 100 1022.1
20260906115533 75 193 2.0 9.0 0.00 0.00 0.00 100 1022.2
20260906115033 74 284 1.0 9.0 0.00 0.00 0.00 60 1022.3
20260906114601 74 192 2.0 8.0 0.00 0.00 0.00 94 1022.4
20260906114034 74 178 3.0 8.0 0.00 0.00 0.00 30 1022.4
20260906113532 73 0 2.0 9.0 0.00 0.00 0.00 100 1022.4
20260906113043 73 240 2.0 10.0 0.00 0.00 0.00 100 1022.4
20260906112533 73 211 4.0 10.0 0.00 0.00 0.00 100 1022.6
20260906112032 74 148 2.0 8.0 0.00 0.00 0.00 50 1022.6
20260906111542 73 236 2.0 7.0 0.00 0.00 0.00 100 1022.6
20260906111032 73 257 2.0 9.0 0.00 0.00 0.00 100 1022.5
20260906110533 72 287 2.0 9.0 0.00 0.00 0.00 100 1022.6
20260906110046 72 229 1.0 9.0 0.00 0.00 0.00 100 1022.6
20260906105533 72 251 1.0 9.0 0.00 0.00 0.00 100 1022.6
20260906105032 71 175 3.0 9.0 0.00 0.00 0.00 100 1022.6
20260906104545 71 235 2.0 7.0 0.00 0.00 0.00 100 1022.7
20260906104033 71 113 1.0 8.0 0.00 0.00 0.00 100 1022.7
20260906103531 70 240 1.0 8.0 0.00 0.00 0.00 100 1022.8
20260906103056 70 242 2.0 8.0 0.00 0.00 0.00 100 1022.8
20260906102533 70 242 2.0 8.0 0.00 0.00 0.00 100 1022.8
20260906102032 70 134 3.0 8.0 0.00 0.00 0.00 100 1022.7
20260906101553 70 188 2.0 9.0 0.00 0.00 0.00 100 1022.8
20260906101033 70 256 2.0 10.0 0.00 0.00 0.00 100 1022.8
20260906100534 69 252 2.0 10.0 0.00 0.00 0.00 100 1022.9
20260906100048 69 286 1.0 5.0 0.00 0.00 0.00 100 1022.9
20260906095533 69 248 0.0 4.0 0.00 0.00 0.00 100 1023.0
20260906095034 69 207 1.0 4.0 0.00 0.00 0.00 100 1023.1
20260906094547 68 59 0.0 6.0 0.00 0.00 0.00 100 1023.1
20260906094032 68 360 1.0 7.0 0.00 0.00 0.00 100 1023.0
20260906093532 68 0 0.0 7.0 0.00 0.00 0.00 100 1023.1
20260906093051 67 270 2.0 7.0 0.00 0.00 0.00 100 1023.1
20260906092533 67 241 2.0 7.0 0.00 0.00 0.00 100 1023.1
20260906092033 67 193 0.0 5.0 0.00 0.00 0.00 100 1023.0
20260906091605 66 313 1.0 8.0 0.00 0.00 0.00 100 1023.1
20260906091032 66 202 1.0 8.0 0.00 0.00 0.00 100 1023.2
20260906090532 66 236 1.0 6.0 0.00 0.00 0.00 100 1023.2
20260906090058 65 288 1.0 4.0 0.00 0.00 0.00 100 1023.2
20260906085533 65 0 0.0 5.0 0.00 0.00 0.00 100 1023.2
20260906085032 65 260 0.0 7.0 0.00 0.00 0.00 100 1023.2
20260906084552 64 298 1.0 7.0 0.00 0.00 0.00 100 1023.2
20260906084032 64 0 1.0 6.0 0.00 0.00 0.00 100 1023.2
20260906083532 64 0 0.0 8.0 0.00 0.00 0.00 100 1023.3
20260906083052 63 294 2.0 8.0 0.00 0.00 0.00 100 1023.4
20260906082536 63 264 1.0 7.0 0.00 0.00 0.00 100 1023.5
20260906082036 63 257 1.0 7.0 0.00 0.00 0.00 100 1023.5
20260906081546 62 241 0.0 7.0 0.00 0.00 0.00 100 1023.3
20260906081032 62 256 0.0 4.0 0.00 0.00 0.00 100 1023.3
20260906080532 61 0 1.0 4.0 0.00 0.00 0.00 100 1023.4
20260906080046 61 248 0.0 4.0 0.00 0.00 0.00 100 1023.4
20260906075532 61 292 0.0 3.0 0.00 0.00 0.00 100 1023.3
20260906075032 60 0 0.0 3.0 0.00 0.00 0.00 100 1023.4
20260906074555 60 0 0.0 3.0 0.00 0.00 0.00 100 1023.4
20260906074032 59 0 0.0 0.0 0.00 0.00 0.00 100 1023.5
20260906073532 58 0 0.0 0.0 0.00 0.00 0.00 100 1023.4
20260906073048 58 0 0.0 0.0 0.00 0.00 0.00 100 1023.5
20260906072532 57 0 0.0 0.0 0.00 0.00 0.00 100 1023.5
20260906072033 57 0 0.0 0.0 0.00 0.00 0.00 100 1023.4
20260906071544 57 0 0.0 0.0 0.00 0.00 0.00 100 1023.6
20260906071032 56 0 0.0 0.0 0.00 0.00 0.00 100 1023.6
20260906070532 56 0 0.0 0.0 0.00 0.00 0.00 100 1023.6
20260906070053 56 0 0.0 0.0 0.00 0.00 0.00 100 1023.9
20260906065532 55 0 0.0 0.0 0.00 0.00 0.00 100 1023.8
20260906065033 55 0 0.0 0.0 0.00 0.00 0.00 100 1023.9
20260906064546 55 0 0.0 0.0 0.00 0.00 0.00 100 1024.0
20260906064033 55 0 0.0 0.0 0.00 0.00 0.00 100 1024.1
20260906063532 54 0 0.0 0.0 0.00 0.00 0.00 100 1024.0
20260906063046 54 0 0.0 0.0 0.00 0.00 0.00 100 1024.1
20260906062532 54 0 0.0 0.0 0.00 0.00 0.00 100 1024.1
20260906062034 54 0 0.0 0.0 0.00 0.00 0.00 100 1024.1
20260906061554 54 0 0.0 0.0 0.00 0.00 0.00 100 1024.2
20260906061032 54 0 0.0 0.0 0.00 0.00 0.00 100 1024.1
20260906060533 54 0 0.0 0.0 0.00 0.00 0.00 100 1024.3
20260906060053 54 0 0.0 0.0 0.00 0.00 0.00 100 1024.2
20260906055533 54 0 0.0 0.0 0.00 0.00 0.00 100 1024.1
20260906055033 54 0 0.0 0.0 0.00 0.00 0.00 100 1024.0
20260906054546 54 0 0.0 0.0 0.00 0.00 0.00 100 1023.9
20260906054032 54 0 0.0 0.0 0.00 0.00 0.00 100 1024.0
20260906053532 54 0 0.0 0.0 0.00 0.00 0.00 100 1024.1
20260906053058 54 0 0.0 0.0 0.00 0.00 0.00 100 1024.3
20260906052533 54 0 0.0 0.0 0.00 0.00 0.00 100 1024.3
20260906052033 54 0 0.0 0.0 0.00 0.00 0.00 100 1024.3
20260906051542 54 0 0.0 0.0 0.00 0.00 0.00 100 1024.2
20260906051031 54 0 0.0 0.0 0.00 0.00 0.00 100 1024.3
20260906050531 54 0 0.0 0.0 0.00 0.00 0.00 100 1024.4
20260906050055 53 0 0.0 0.0 0.00 0.00 0.00 100 1024.3
20260906045535 53 0 0.0 0.0 0.00 0.00 0.00 100 1024.3
20260906045031 53 0 0.0 0.0 0.00 0.00 0.00 100 1024.4
20260906044557 53 0 0.0 0.0 0.00 0.00 0.00 100 1024.4
20260906044032 53 0 0.0 0.0 0.00 0.00 0.00 100 1024.2
20260906043530 53 0 0.0 0.0 0.00 0.00 0.00 100 1024.4
20260906043059 53 0 0.0 0.0 0.00 0.00 0.00 100 1024.4
20260906042531 53 0 0.0 0.0 0.00 0.00 0.00 100 1024.4
20260906042031 53 0 0.0 0.0 0.00 0.00 0.00 100 1024.5
20260906041556 53 0 0.0 0.0 0.00 0.00 0.00 100 1024.6
20260906041030 54 0 0.0 0.0 0.00 0.00 0.00 100 1024.5
20260906040531 54 0 0.0 0.0 0.00 0.00 0.00 100 1024.6
20260906040049 54 0 0.0 0.0 0.00 0.00 0.00 100 1024.5
20260906035530 54 0 0.0 0.0 0.00 0.00 0.00 100 1024.7
20260906035036 54 0 0.0 0.0 0.00 0.00 0.00 100 1024.8
20260906034553 54 0 0.0 0.0 0.00 0.00 0.00 100 1024.9
20260906034034 54 0 0.0 0.0 0.00 0.00 0.00 100 1024.7
20260906033531 54 0 0.0 0.0 0.00 0.00 0.00 100 1024.8
20260906033104 54 0 0.0 0.0 0.00 0.00 0.00 100 1024.7
20260906032531 54 0 0.0 0.0 0.00 0.00 0.00 100 1024.7
20260906032031 54 0 0.0 0.0 0.00 0.00 0.00 100 1024.7
20260906031550 54 0 0.0 0.0 0.00 0.00 0.00 100 1024.7
20260906031031 54 0 0.0 0.0 0.00 0.00 0.00 100 1024.7
20260906030531 54 0 0.0 0.0 0.00 0.00 0.00 100 1024.5
20260906030049 54 0 0.0 0.0 0.00 0.00 0.00 100 1024.6
20260906025531 54 0 0.0 0.0 0.00 0.00 0.00 100 1024.8
20260906025031 54 0 0.0 0.0 0.00 0.00 0.00 100 1024.9
20260906024546 54 0 0.0 0.0 0.00 0.00 0.00 100 1025.0
20260906024034 54 0 0.0 0.0 0.00 0.00 0.00 100 1025.1
20260906023537 54 0 0.0 0.0 0.00 0.00 0.00 100 1025.2
20260906023056 54 0 0.0 0.0 0.00 0.00 0.00 100 1025.4
20260906022531 54 0 0.0 0.0 0.00 0.00 0.00 100 1025.5
20260906022033 54 0 0.0 0.0 0.00 0.00 0.00 100 1025.5
20260906021557 54 0 0.0 0.0 0.00 0.00 0.00 100 1025.7
20260906021031 54 0 0.0 0.0 0.00 0.00 0.00 100 1025.7
20260906020535 54 0 0.0 0.0 0.00 0.00 0.00 100 1025.8
20260906020100 54 0 0.0 0.0 0.00 0.00 0.00 100 1025.7
20260906015534 54 0 0.0 0.0 0.00 0.00 0.00 100 1025.8
20260906015032 54 0 0.0 0.0 0.00 0.00 0.00 100 1025.7
20260906014554 54 0 0.0 0.0 0.00 0.00 0.00 100 1025.7
20260906014037 54 0 0.0 0.0 0.00 0.00 0.00 100 1025.7
20260906013531 54 0 0.0 0.0 0.00 0.00 0.00 100 1025.7
20260906013056 54 0 0.0 0.0 0.00 0.00 0.00 100 1026.0
20260906012538 54 0 0.0 0.0 0.00 0.00 0.00 100 1025.8
20260906012032 55 0 0.0 0.0 0.00 0.00 0.00 100 1025.8
20260906011559 55 0 0.0 0.0 0.00 0.00 0.00 100 1026.0
20260906011036 55 0 0.0 0.0 0.00 0.00 0.00 100 1025.9
20260906010534 55 0 0.0 0.0 0.00 0.00 0.00 100 1026.0
20260906010057 55 0 0.0 0.0 0.00 0.00 0.00 100 1025.9
20260906005536 55 0 0.0 0.0 0.00 0.00 0.00 100 1025.9
20260906005034 55 0 0.0 0.0 0.00 0.00 0.00 100 1026.0
20260906004558 55 0 0.0 0.0 0.00 0.00 0.00 100 1026.0
20260906004036 55 0 0.0 0.0 0.00 0.00 0.00 100 1026.1
20260906003535 55 0 0.0 0.0 0.00 0.00 0.00 100 1026.0
20260906003103 55 0 0.0 0.0 0.00 0.00 0.00 100 1026.0
20260906002534 55 0 0.0 0.0 0.00 0.00 0.00 100 1026.1
20260906002035 55 0 0.0 0.0 0.00 0.00 0.00 100 1026.2
20260906001554 55 0 0.0 0.0 0.00 0.00 0.00 100 1026.1
20260906001034 55 0 0.0 0.0 0.00 0.00 0.00 100 1026.2
20260906000535 55 0 0.0 0.0 0.00 0.00 0.00 100 1026.3
20260906000057 55 0 0.0 0.0 0.00 0.00 0.00 100 1026.2
20260905235534 55 0 0.0 0.0 0.00 0.00 0.00 100 1026.3
20260905235031 55 0 0.0 0.0 0.00 0.00 0.00 100 1026.3
20260905234549 56 0 0.0 0.0 0.00 0.00 0.00 100 1026.3
20260905234031 56 0 0.0 0.0 0.00 0.00 0.00 100 1026.3
20260905233532 56 0 0.0 0.0 0.00 0.00 0.00 100 1026.3
20260905233043 56 0 0.0 0.0 0.00 0.00 0.00 100 1026.0
20260905232532 56 0 0.0 0.0 0.00 0.00 0.00 100 1026.0
20260905232036 56 0 0.0 0.0 0.00 0.00 0.00 100 1026.0
20260905231554 56 0 0.0 0.0 0.00 0.00 0.00 100 1025.9
20260905231034 56 0 0.0 0.0 0.00 0.00 0.00 100 1025.9
20260905230531 56 0 0.0 0.0 0.00 0.00 0.00 100 1026.1
20260905230051 56 0 0.0 0.0 0.00 0.00 0.00 100 1026.1
20260905225534 56 0 0.0 0.0 0.00 0.00 0.00 100 1026.0
20260905225032 56 0 0.0 0.0 0.00 0.00 0.00 100 1026.0
20260905224555 56 0 0.0 0.0 0.00 0.00 0.00 100 1025.9
20260905224032 56 0 0.0 0.0 0.00 0.00 0.00 100 1026.0
20260905223532 56 0 0.0 0.0 0.00 0.00 0.00 100 1026.0
20260905223050 56 0 0.0 0.0 0.00 0.00 0.00 100 1026.0
20260905222532 57 0 0.0 0.0 0.00 0.00 0.00 100 1026.1
20260905222031 57 0 0.0 0.0 0.00 0.00 0.00 100 1026.1
20260905221543 57 0 0.0 0.0 0.00 0.00 0.00 100 1026.2
20260905221033 57 0 0.0 0.0 0.00 0.00 0.00 100 1026.2
20260905220531 57 0 0.0 0.0 0.00 0.00 0.00 100 1026.1
20260905220052 57 0 0.0 0.0 0.00 0.00 0.00 100 1026.1
20260905215532 57 0 0.0 0.0 0.00 0.00 0.00 100 1026.1
20260905215033 57 0 0.0 0.0 0.00 0.00 0.00 100 1026.1
20260905214601 57 0 0.0 0.0 0.00 0.00 0.00 100 1026.0
20260905214032 57 0 0.0 0.0 0.00 0.00 0.00 100 1025.8
20260905213532 57 0 0.0 0.0 0.00 0.00 0.00 100 1025.9
20260905213053 57 0 0.0 0.0 0.00 0.00 0.00 100 1026.1
20260905212534 57 0 0.0 0.0 0.00 0.00 0.00 100 1025.9
20260905212032 57 0 0.0 0.0 0.00 0.00 0.00 100 1026.0
20260905211556 57 0 0.0 0.0 0.00 0.00 0.00 100 1025.9
20260905211031 57 0 0.0 0.0 0.00 0.00 0.00 100 1025.9
20260905210531 58 0 0.0 0.0 0.00 0.00 0.00 100 1025.8
20260905210058 58 0 0.0 0.0 0.00 0.00 0.00 100 1025.9
20260905205531 58 0 0.0 0.0 0.00 0.00 0.00 100 1025.8
20260905205032 58 0 0.0 0.0 0.00 0.00 0.00 100 1025.8
20260905204547 58 0 0.0 0.0 0.00 0.00 0.00 100 1025.9
20260905204031 58 0 0.0 0.0 0.00 0.00 0.00 100 1026.0
20260905203534 59 0 0.0 0.0 0.00 0.00 0.00 100 1026.1
20260905203054 59 0 0.0 0.0 0.00 0.00 0.00 100 1026.0
20260905202533 59 0 0.0 0.0 0.00 0.00 0.00 100 1026.0
20260905202033 59 0 0.0 0.0 0.00 0.00 0.00 100 1026.0
20260905201552 59 0 0.0 0.0 0.00 0.00 0.00 100 1026.0
20260905201032 59 0 0.0 0.0 0.00 0.00 0.00 100 1025.9
20260905200533 59 0 0.0 0.0 0.00 0.00 0.00 100 1025.8
20260905200050 60 0 0.0 1.0 0.00 0.00 0.00 100 1025.8
20260905195534 60 0 0.0 1.0 0.00 0.00 0.00 100 1025.9
20260905195034 60 0 0.0 0.0 0.00 0.00 0.00 100 1025.9
20260905194549 60 0 0.0 1.0 0.00 0.00 0.00 100 1025.9
20260905194031 60 0 0.0 1.0 0.00 0.00 0.00 100 1025.9
20260905193530 61 0 0.0 3.0 0.00 0.00 0.00 100 1025.8
20260905193044 61 0 0.0 3.0 0.00 0.00 0.00 100 1025.8
20260905192532 61 247 0.0 3.0 0.00 0.00 0.00 100 1025.7
20260905192033 61 0 1.0 3.0 0.00 0.00 0.00 100 1025.7
20260905191556 61 0 0.0 3.0 0.00 0.00 0.00 100 1025.7
20260905191031 62 0 0.0 3.0 0.00 0.00 0.00 100 1025.6
20260905190533 62 0 0.0 3.0 0.00 0.00 0.00 100 1025.6
20260905190053 62 190 0.0 3.0 0.00 0.00 0.00 100 1025.5
20260905185532 62 211 0.0 3.0 0.00 0.00 0.00 100 1025.5
20260905185035 62 0 0.0 4.0 0.00 0.00 0.00 100 1025.3
20260905184610 63 0 0.0 4.0 0.00 0.00 0.00 100 1025.3
20260905184031 63 208 0.0 3.0 0.00 0.00 0.00 100 1025.5
20260905183533 63 219 0.0 3.0 0.00 0.00 0.00 100 1025.3
20260905183055 64 0 0.0 3.0 0.00 0.00 0.00 100 1025.3
20260905182533 64 204 0.0 4.0 0.00 0.00 0.00 100 1025.3
20260905182033 64 0 1.0 5.0 0.00 0.00 0.00 100 1025.4
20260905181557 64 212 1.0 5.0 0.00 0.00 0.00 100 1025.3
20260905181031 65 232 1.0 5.0 0.00 0.00 0.00 100 1025.3
20260905180533 65 0 0.0 5.0 0.00 0.00 0.00 100 1025.4
20260905180051 65 0 1.0 5.0 0.00 0.00 0.00 100 1025.3
20260905175531 65 197 1.0 6.0 0.00 0.00 0.00 100 1025.3
20260905175032 66 239 2.0 6.0 0.00 0.00 0.00 100 1025.2
20260905174556 66 211 1.0 6.0 0.00 0.00 0.00 100 1025.2
20260905174031 67 180 2.0 6.0 0.00 0.00 0.00 100 1025.2
20260905173531 67 234 0.0 6.0 0.00 0.00 0.00 100 1025.1
20260905173052 68 0 0.0 6.0 0.00 0.00 0.00 100 1025.1
20260905172531 68 180 0.0 6.0 0.00 0.00 0.00 100 1025.2
20260905172036 68 0 1.0 5.0 0.00 0.00 0.00 100 1025.2
20260905171545 68 180 1.0 9.0 0.00 0.00 0.00 100 1025.2
20260905171032 68 197 2.0 9.0 0.00 0.00 0.00 100 1025.2
20260905170532 69 258 3.0 8.0 0.00 0.00 0.00 98 1025.2
20260905170055 69 242 1.0 6.0 0.00 0.00 0.00 100 1025.1
20260905165531 69 192 2.0 9.0 0.00 0.00 0.00 89 1025.2
20260905165033 69 141 2.0 9.0 0.00 0.00 0.00 44 1025.1
20260905164543 70 142 3.0 9.0 0.00 0.00 0.00 100 1025.1
20260905164032 70 246 1.0 7.0 0.00 0.00 0.00 100 1025.2
20260905163531 70 254 1.0 6.0 0.00 0.00 0.00 70 1025.1
20260905163047 70 0 1.0 6.0 0.00 0.00 0.00 12 1025.2
20260905162531 70 142 0.0 5.0 0.00 0.00 0.00 32 1025.1
20260905162033 70 229 1.0 9.0 0.00 0.00 0.00 41 1025.0
20260905161555 70 242 1.0 11.0 0.00 0.00 0.00 8 1025.1
20260905161034 70 234 2.0 11.0 0.00 0.00 0.00 100 1025.1
20260905160531 70 217 2.0 9.0 0.00 0.00 0.00 100 1025.0
20260905160049 71 191 4.0 9.0 0.00 0.00 0.00 100 1025.1
20260905155531 71 236 2.0 8.0 0.00 0.00 0.00 100 1025.2
20260905155031 71 222 1.0 8.0 0.00 0.00 0.00 100 1025.1
20260905154608 71 227 2.0 8.0 0.00 0.00 0.00 100 1025.1
20260905154031 72 0 2.0 8.0 0.00 0.00 0.00 100 1025.1
20260905153534 72 234 3.0 8.0 0.00 0.00 0.00 100 1025.1
20260905153044 73 276 1.0 8.0 0.00 0.00 0.00 100 1025.0
20260905152532 73 254 1.0 8.0 0.00 0.00 0.00 100 1025.0
20260905152032 73 209 2.0 8.0 0.00 0.00 0.00 100 1025.1
20260905151551 73 258 0.0 4.0 0.00 0.00 0.00 100 1025.1
20260905151032 73 0 1.0 6.0 0.00 0.00 0.00 100 1025.0
20260905150535 72 198 2.0 9.0 0.00 0.00 0.00 100 1025.0
20260905150051 72 0 1.0 9.0 0.00 0.00 0.00 100 1025.0
20260905145533 72 272 2.0 9.0 0.00 0.00 0.00 100 1025.0
20260905145031 72 263 0.0 8.0 0.00 0.00 0.00 100 1025.2
20260905144546 72 265 2.0 8.0 0.00 0.00 0.00 100 1025.1
20260905144030 72 232 3.0 8.0 0.00 0.00 0.00 100 1025.1
20260905143535 72 243 2.0 8.0 0.00 0.00 0.00 100 1025.0
20260905143053 72 221 2.0 8.0 0.00 0.00 0.00 100 1025.1
20260905142533 72 298 1.0 5.0 0.00 0.00 0.00 100 1025.0
20260905142031 71 217 0.0 4.0 0.00 0.00 0.00 100 1025.0
20260905141546 71 0 1.0 7.0 0.00 0.00 0.00 100 1025.1
20260905141033 71 292 2.0 7.0 0.00 0.00 0.00 100 1025.0
20260905140532 71 189 1.0 6.0 0.00 0.00 0.00 100 1025.0
20260905140058 71 228 1.0 4.0 0.00 0.00 0.00 100 1025.0
20260905135534 71 0 0.0 4.0 0.00 0.00 0.00 100 1025.0
20260905135035 71 21 1.0 8.0 0.00 0.00 0.00 100 1024.9
20260905134551 71 209 1.0 8.0 0.00 0.00 0.00 100 1025.0
20260905134031 71 234 2.0 8.0 0.00 0.00 0.00 100 1025.1
20260905133532 71 69 0.0 8.0 0.00 0.00 0.00 100 1025.0